| time (UTC) | temp C | wind direction | speed KPH | gust KPH | rain 1hr cm | rain 24hr cm | rain mn cm | humidity % | barometer mb |
| 20260902231653 | 34 | 49 | 1.6 | 4.8 | 0.00 | 0.00 | 0.00 | 50 | 1015.1 |
| 20260902231148 | 35 | 221 | 3.2 | 6.4 | 0.00 | 0.00 | 0.00 | 50 | 1014.8 |
| 20260902230643 | 35 | 258 | 3.2 | 4.8 | 0.00 | 0.00 | 0.00 | 48 | 1015.1 |
| 20260902230142 | 35 | 220 | 3.2 | 3.2 | 0.00 | 0.00 | 0.00 | 49 | 1015.1 |
| 20260902225637 | 35 | 17 | 0.0 | 3.2 | 0.00 | 0.00 | 0.00 | 48 | 1015.2 |
| 20260902225136 | 35 | 294 | 0.0 | 4.8 | 0.00 | 0.00 | 0.00 | 48 | 1014.9 |
| 20260902224635 | 35 | 258 | 0.0 | 4.8 | 0.00 | 0.00 | 0.00 | 48 | 1014.9 |
| 20260902224131 | 35 | 298 | 3.2 | 6.4 | 0.00 | 0.00 | 0.00 | 48 | 1015.0 |
| 20260902223627 | 35 | 205 | 6.4 | 6.4 | 0.00 | 0.00 | 0.00 | 47 | 1015.3 |
| 20260902223127 | 35 | 220 | 3.2 | 6.4 | 0.00 | 0.00 | 0.00 | 47 | 1015.1 |
| 20260902222626 | 35 | 308 | 3.2 | 4.8 | 0.00 | 0.00 | 0.00 | 46 | 1015.2 |
| 20260902222125 | 35 | 268 | 4.8 | 6.4 | 0.00 | 0.00 | 0.00 | 46 | 1015.1 |
| 20260902221625 | 36 | 219 | 4.8 | 8.0 | 0.00 | 0.00 | 0.00 | 46 | 1015.1 |
| 20260902221120 | 35 | 7 | 4.8 | 6.4 | 0.00 | 0.00 | 0.00 | 47 | 1015.3 |
| 20260902220615 | 35 | 263 | 1.6 | 6.4 | 0.00 | 0.00 | 0.00 | 47 | 1015.3 |
| 20260902220109 | 35 | 238 | 4.8 | 8.0 | 0.00 | 0.00 | 0.00 | 46 | 1015.3 |
| 20260902215607 | 36 | 226 | 6.4 | 11.3 | 0.00 | 0.00 | 0.00 | 45 | 1015.3 |
| 20260902215106 | 36 | 272 | 3.2 | 4.8 | 0.00 | 0.00 | 0.00 | 45 | 1015.3 |
| 20260902214601 | 36 | 204 | 3.2 | 6.4 | 0.00 | 0.00 | 0.00 | 45 | 1015.2 |
| 20260902214100 | 36 | 302 | 4.8 | 6.4 | 0.00 | 0.00 | 0.00 | 45 | 1015.2 |
| 20260902213556 | 36 | 227 | 8.0 | 9.7 | 0.00 | 0.00 | 0.00 | 45 | 1015.3 |
| 20260902213055 | 36 | 224 | 4.8 | 6.4 | 0.00 | 0.00 | 0.00 | 46 | 1015.1 |
| 20260902212551 | 36 | 181 | 0.0 | 4.8 | 0.00 | 0.00 | 0.00 | 46 | 1015.1 |
| 20260902212047 | 35 | 189 | 3.2 | 6.4 | 0.00 | 0.00 | 0.00 | 47 | 1015.3 |
| 20260902211543 | 35 | 305 | 4.8 | 8.0 | 0.00 | 0.00 | 0.00 | 46 | 1015.3 |
| 20260902211038 | 35 | 237 | 4.8 | 9.7 | 0.00 | 0.00 | 0.00 | 46 | 1015.3 |
| 20260902210538 | 35 | 308 | 3.2 | 6.4 | 0.00 | 0.00 | 0.00 | 46 | 1015.4 |
| 20260902210037 | 35 | 224 | 1.6 | 6.4 | 0.00 | 0.00 | 0.00 | 47 | 1015.4 |
| 20260902205531 | 35 | 151 | 3.2 | 4.8 | 0.00 | 0.00 | 0.00 | 46 | 1015.3 |
| 20260902205027 | 35 | 263 | 4.8 | 6.4 | 0.00 | 0.00 | 0.00 | 45 | 1015.4 |
| 20260902204527 | 36 | 64 | 3.2 | 4.8 | 0.00 | 0.00 | 0.00 | 45 | 1015.5 |
| 20260902204022 | 36 | 122 | 0.0 | 6.4 | 0.00 | 0.00 | 0.00 | 46 | 1015.6 |
| 20260902203517 | 36 | 141 | 0.0 | 4.8 | 0.00 | 0.00 | 0.00 | 45 | 1015.4 |
| 20260902203016 | 36 | 173 | 3.2 | 6.4 | 0.00 | 0.00 | 0.00 | 44 | 1015.5 |
| 20260902202513 | 36 | 220 | 3.2 | 4.8 | 0.00 | 0.00 | 0.00 | 46 | 1015.6 |
| 20260902202009 | 36 | 244 | 4.8 | 6.4 | 0.00 | 0.00 | 0.00 | 43 | 1015.6 |
| 20260902201504 | 36 | 236 | 3.2 | 4.8 | 0.00 | 0.00 | 0.00 | 45 | 1015.6 |
| 20260902201004 | 36 | 69 | 0.0 | 8.0 | 0.00 | 0.00 | 0.00 | 47 | 1015.6 |
| 20260902200459 | 36 | 285 | 3.2 | 9.7 | 0.00 | 0.00 | 0.00 | 44 | 1015.4 |
| 20260902195955 | 36 | 302 | 3.2 | 6.4 | 0.00 | 0.00 | 0.00 | 44 | 1015.6 |
| 20260902195450 | 36 | 239 | 3.2 | 9.7 | 0.00 | 0.00 | 0.00 | 44 | 1015.8 |
| 20260902194949 | 36 | 2 | 6.4 | 6.4 | 0.00 | 0.00 | 0.00 | 45 | 1015.8 |
| 20260902194448 | 36 | 239 | 3.2 | 8.0 | 0.00 | 0.00 | 0.00 | 45 | 1016.0 |
| 20260902193944 | 36 | 239 | 11.3 | 14.5 | 0.00 | 0.00 | 0.00 | 45 | 1015.7 |
| 20260902193440 | 35 | 1 | 3.2 | 4.8 | 0.00 | 0.00 | 0.00 | 45 | 1016.1 |
| 20260902192938 | 35 | 241 | 3.2 | 9.7 | 0.00 | 0.00 | 0.00 | 47 | 1016.0 |
| 20260902192437 | 35 | 235 | 6.4 | 9.7 | 0.00 | 0.00 | 0.00 | 46 | 1016.1 |
| 20260902191936 | 35 | 323 | 3.2 | 14.5 | 0.00 | 0.00 | 0.00 | 46 | 1016.2 |
| 20260902191432 | 35 | 250 | 1.6 | 6.4 | 0.00 | 0.00 | 0.00 | 47 | 1016.4 |
| 20260902190927 | 35 | 352 | 8.0 | 12.9 | 0.00 | 0.00 | 0.00 | 45 | 1016.2 |
| 20260902190423 | 35 | 223 | 1.6 | 8.0 | 0.00 | 0.00 | 0.00 | 47 | 1016.1 |
| 20260902185918 | 35 | 339 | 0.0 | 16.1 | 0.00 | 0.00 | 0.00 | 45 | 1016.3 |
| 20260902185415 | 35 | 46 | 4.8 | 14.5 | 0.00 | 0.00 | 0.00 | 45 | 1016.1 |
| 20260902184915 | 36 | 204 | 8.0 | 14.5 | 0.00 | 0.00 | 0.00 | 44 | 1016.2 |
| 20260902184410 | 36 | 262 | 3.2 | 4.8 | 0.00 | 0.00 | 0.00 | 45 | 1016.3 |
| 20260902183906 | 35 | 238 | 6.4 | 6.4 | 0.00 | 0.00 | 0.00 | 46 | 1016.3 |
| 20260902183402 | 35 | 224 | 4.8 | 4.8 | 0.00 | 0.00 | 0.00 | 45 | 1016.4 |
| 20260902182857 | 35 | 261 | 3.2 | 9.7 | 0.00 | 0.00 | 0.00 | 46 | 1016.6 |
| 20260902182354 | 35 | 30 | 11.3 | 12.9 | 0.00 | 0.00 | 0.00 | 47 | 1016.6 |
| 20260902181850 | 34 | 34 | 6.4 | 12.9 | 0.00 | 0.00 | 0.00 | 48 | 1016.7 |
| 20260902181345 | 35 | 308 | 4.8 | 9.7 | 0.00 | 0.00 | 0.00 | 47 | 1016.7 |
| 20260902180844 | 35 | 214 | 3.2 | 6.4 | 0.00 | 0.00 | 0.00 | 49 | 1016.6 |
| 20260902180340 | 35 | 229 | 4.8 | 6.4 | 0.00 | 0.00 | 0.00 | 49 | 1016.8 |
| 20260902175835 | 35 | 57 | 3.2 | 16.1 | 0.00 | 0.00 | 0.00 | 47 | 1016.9 |
| 20260902175331 | 34 | 273 | 0.0 | 9.7 | 0.00 | 0.00 | 0.00 | 49 | 1016.9 |
| 20260902174826 | 34 | 346 | 4.8 | 8.0 | 0.00 | 0.00 | 0.00 | 50 | 1016.7 |
| 20260902174324 | 34 | 178 | 3.2 | 9.7 | 0.00 | 0.00 | 0.00 | 51 | 1016.9 |
| 20260902173819 | 33 | 226 | 4.8 | 12.9 | 0.00 | 0.00 | 0.00 | 52 | 1016.9 |
| 20260902173319 | 33 | 236 | 6.4 | 11.3 | 0.00 | 0.00 | 0.00 | 53 | 1017.2 |
| 20260902172813 | 33 | 242 | 8.0 | 14.5 | 0.00 | 0.00 | 0.00 | 52 | 1017.2 |
| 20260902172312 | 33 | 237 | 6.4 | 9.7 | 0.00 | 0.00 | 0.00 | 52 | 1017.0 |
| 20260902171808 | 33 | 249 | 6.4 | 19.3 | 0.00 | 0.00 | 0.00 | 51 | 1017.1 |
| 20260902171303 | 34 | 234 | 9.7 | 11.3 | 0.00 | 0.00 | 0.00 | 51 | 1017.2 |
| 20260902170759 | 33 | 31 | 3.2 | 12.9 | 0.00 | 0.00 | 0.00 | 52 | 1017.1 |
| 20260902170254 | 33 | 354 | 6.4 | 8.0 | 0.00 | 0.00 | 0.00 | 51 | 1017.1 |
| 20260902165750 | 33 | 295 | 4.8 | 12.9 | 0.00 | 0.00 | 0.00 | 51 | 1017.3 |
| 20260902165249 | 33 | 233 | 6.4 | 12.9 | 0.00 | 0.00 | 0.00 | 51 | 1017.5 |
| 20260902164745 | 33 | 272 | 9.7 | 14.5 | 0.00 | 0.00 | 0.00 | 50 | 1017.6 |
| 20260902164244 | 33 | 138 | 6.4 | 12.9 | 0.00 | 0.00 | 0.00 | 51 | 1017.5 |
| 20260902163739 | 33 | 256 | 9.7 | 11.3 | 0.00 | 0.00 | 0.00 | 50 | 1017.6 |
| 20260902163239 | 33 | 205 | 1.6 | 8.0 | 0.00 | 0.00 | 0.00 | 52 | 1017.5 |
| 20260902162737 | 33 | 269 | 3.2 | 8.0 | 0.00 | 0.00 | 0.00 | 50 | 1017.6 |
| 20260902162232 | 33 | 236 | 3.2 | 9.7 | 0.00 | 0.00 | 0.00 | 51 | 1017.7 |
| 20260902161727 | 33 | 241 | 1.6 | 16.1 | 0.00 | 0.00 | 0.00 | 53 | 1017.5 |
| 20260902161223 | 33 | 260 | 3.2 | 6.4 | 0.00 | 0.00 | 0.00 | 52 | 1017.8 |
| 20260902160720 | 33 | 217 | 3.2 | 8.0 | 0.00 | 0.00 | 0.00 | 52 | 1017.6 |
| 20260902160219 | 33 | 282 | 3.2 | 8.0 | 0.00 | 0.00 | 0.00 | 53 | 1017.7 |
| 20260902155718 | 33 | 308 | 1.6 | 8.0 | 0.00 | 0.00 | 0.00 | 54 | 1017.7 |
| 20260902155217 | 32 | 233 | 0.0 | 8.0 | 0.00 | 0.00 | 0.00 | 54 | 1017.6 |
| 20260902154713 | 32 | 263 | 9.7 | 9.7 | 0.00 | 0.00 | 0.00 | 54 | 1017.8 |
| 20260902154212 | 32 | 328 | 4.8 | 11.3 | 0.00 | 0.00 | 0.00 | 55 | 1017.7 |
| 20260902153712 | 32 | 263 | 4.8 | 8.0 | 0.00 | 0.00 | 0.00 | 55 | 1018.0 |
| 20260902153212 | 32 | 257 | 3.2 | 8.0 | 0.00 | 0.00 | 0.00 | 55 | 1018.0 |
| 20260902152708 | 32 | 307 | 4.8 | 8.0 | 0.00 | 0.00 | 0.00 | 56 | 1018.0 |
| 20260902152204 | 32 | 153 | 1.6 | 6.4 | 0.00 | 0.00 | 0.00 | 57 | 1017.9 |
| 20260902151659 | 32 | 0 | 0.0 | 6.4 | 0.00 | 0.00 | 0.00 | 57 | 1017.7 |
| 20260902151154 | 32 | 229 | 3.2 | 4.8 | 0.00 | 0.00 | 0.00 | 57 | 1017.9 |
| 20260902150649 | 31 | 305 | 3.2 | 8.0 | 0.00 | 0.00 | 0.00 | 58 | 1018.0 |
| 20260902150145 | 31 | 227 | 4.8 | 9.7 | 0.00 | 0.00 | 0.00 | 59 | 1018.0 |
| 20260902145644 | 32 | 3 | 4.8 | 16.1 | 0.00 | 0.00 | 0.00 | 58 | 1018.0 |
| 20260902145144 | 31 | 108 | 0.0 | 3.2 | 0.00 | 0.00 | 0.00 | 59 | 1017.9 |
| 20260902144640 | 31 | 229 | 3.2 | 3.2 | 0.00 | 0.00 | 0.00 | 61 | 1017.9 |
| 20260902144136 | 31 | 318 | 3.2 | 8.0 | 0.00 | 0.00 | 0.00 | 61 | 1017.9 |
| 20260902143631 | 31 | 259 | 1.6 | 6.4 | 0.00 | 0.00 | 0.00 | 62 | 1017.9 |
| 20260902143126 | 31 | 337 | 3.2 | 6.4 | 0.00 | 0.00 | 0.00 | 62 | 1017.9 |
| 20260902142621 | 30 | 275 | 3.2 | 6.4 | 0.00 | 0.00 | 0.00 | 62 | 1017.8 |
| 20260902142117 | 30 | 308 | 0.0 | 4.8 | 0.00 | 0.00 | 0.00 | 62 | 1017.8 |
| 20260902141616 | 30 | 124 | 0.0 | 4.8 | 0.00 | 0.00 | 0.00 | 63 | 1017.6 |
| 20260902141112 | 30 | 213 | 3.2 | 9.7 | 0.00 | 0.00 | 0.00 | 63 | 1017.7 |
| 20260902140607 | 30 | 255 | 3.2 | 14.5 | 0.00 | 0.00 | 0.00 | 64 | 1017.8 |
| 20260902140108 | 30 | 301 | 3.2 | 6.4 | 0.00 | 0.00 | 0.00 | 64 | 1017.9 |
| 20260902135607 | 30 | 244 | 4.8 | 8.0 | 0.00 | 0.00 | 0.00 | 64 | 1017.8 |
| 20260902135102 | 30 | 232 | 6.4 | 8.0 | 0.00 | 0.00 | 0.00 | 64 | 1017.9 |
| 20260902134558 | 29 | 239 | 0.0 | 6.4 | 0.00 | 0.00 | 0.00 | 66 | 1017.9 |
| 20260902134057 | 29 | 328 | 6.4 | 6.4 | 0.00 | 0.00 | 0.00 | 65 | 1018.0 |
| 20260902133552 | 29 | 247 | 1.6 | 6.4 | 0.00 | 0.00 | 0.00 | 68 | 1018.1 |
| 20260902133047 | 28 | 252 | 6.4 | 6.4 | 0.00 | 0.00 | 0.00 | 70 | 1018.0 |
| 20260902132542 | 28 | 7 | 0.0 | 1.6 | 0.00 | 0.00 | 0.00 | 70 | 1018.0 |
| 20260902132038 | 28 | 215 | 0.0 | 1.6 | 0.00 | 0.00 | 0.00 | 73 | 1018.0 |
| 20260902131534 | 27 | 279 | 0.0 | 1.6 | 0.00 | 0.00 | 0.00 | 74 | 1018.0 |
| 20260902131034 | 27 | 241 | 0.0 | 3.2 | 0.00 | 0.00 | 0.00 | 75 | 1018.1 |
| 20260902130530 | 27 | 122 | 0.0 | 3.2 | 0.00 | 0.00 | 0.00 | 75 | 1017.8 |
| 20260902130025 | 26 | 114 | 0.0 | 3.2 | 0.00 | 0.00 | 0.00 | 77 | 1017.9 |
| 20260902125521 | 26 | 246 | 0.0 | 3.2 | 0.00 | 0.00 | 0.00 | 78 | 1017.8 |
| 20260902125016 | 25 | 240 | 0.0 | 0.0 | 0.00 | 0.00 | 0.00 | 80 | 1017.9 |
| 20260902124512 | 25 | 99 | 0.0 | 0.0 | 0.00 | 0.00 | 0.00 | 82 | 1017.7 |
| 20260902124012 | 25 | 107 | 0.0 | 0.0 | 0.00 | 0.00 | 0.00 | 82 | 1017.8 |
| 20260902123508 | 25 | 106 | 0.0 | 1.6 | 0.00 | 0.00 | 0.00 | 83 | 1018.0 |
| 20260902123008 | 25 | 107 | 1.6 | 3.2 | 0.00 | 0.00 | 0.00 | 83 | 1017.6 |
| 20260902122502 | 25 | 7 | 1.6 | 3.2 | 0.00 | 0.00 | 0.00 | 83 | 1017.6 |
| 20260902121958 | 24 | 93 | 0.0 | 1.6 | 0.00 | 0.00 | 0.00 | 84 | 1017.9 |
| 20260902121453 | 24 | 7 | 0.0 | 1.6 | 0.00 | 0.00 | 0.00 | 86 | 1017.5 |
| 20260902120948 | 24 | 14 | 0.0 | 1.6 | 0.00 | 0.00 | 0.00 | 86 | 1017.6 |
| 20260902120444 | 24 | 107 | 0.0 | 1.6 | 0.00 | 0.00 | 0.00 | 86 | 1017.7 |
| 20260902115944 | 24 | 11 | 0.0 | 3.2 | 0.00 | 0.00 | 0.00 | 85 | 1017.6 |
| 20260902115440 | 24 | 42 | 0.0 | 1.6 | 0.00 | 0.00 | 0.00 | 86 | 1017.5 |
| 20260902114937 | 24 | 103 | 0.0 | 3.2 | 0.00 | 0.00 | 0.00 | 86 | 1017.3 |
| 20260902114432 | 24 | 11 | 0.0 | 3.2 | 0.00 | 0.00 | 0.00 | 86 | 1017.5 |
| 20260902113932 | 23 | 9 | 3.2 | 4.8 | 0.00 | 0.00 | 0.00 | 87 | 1017.5 |
| 20260902113428 | 23 | 35 | 0.0 | 3.2 | 0.00 | 0.00 | 0.00 | 87 | 1017.3 |
| 20260902112927 | 23 | 16 | 4.8 | 6.4 | 0.00 | 0.00 | 0.00 | 87 | 1017.3 |
| 20260902112424 | 23 | 7 | 4.8 | 6.4 | 0.00 | 0.00 | 0.00 | 88 | 1017.1 |
| 20260902111919 | 23 | 50 | 0.0 | 1.6 | 0.00 | 0.00 | 0.00 | 89 | 1017.1 |
| 20260902111416 | 23 | 97 | 0.0 | 1.6 | 0.00 | 0.00 | 0.00 | 88 | 1017.1 |
| 20260902110912 | 23 | 27 | 0.0 | 1.6 | 0.00 | 0.00 | 0.00 | 87 | 1017.1 |
| 20260902110407 | 23 | 340 | 1.6 | 6.4 | 0.00 | 0.00 | 0.00 | 88 | 1017.1 |
| 20260902105907 | 23 | 0 | 0.0 | 3.2 | 0.00 | 0.00 | 0.00 | 88 | 1017.2 |
| 20260902105402 | 23 | 18 | 6.4 | 6.4 | 0.00 | 0.00 | 0.00 | 88 | 1017.0 |
| 20260902104858 | 23 | 15 | 3.2 | 3.2 | 0.00 | 0.00 | 0.00 | 88 | 1017.2 |
| 20260902104354 | 23 | 107 | 0.0 | 3.2 | 0.00 | 0.00 | 0.00 | 88 | 1017.1 |
| 20260902103853 | 23 | 338 | 3.2 | 3.2 | 0.00 | 0.00 | 0.00 | 88 | 1017.2 |
| 20260902103349 | 23 | 359 | 3.2 | 6.4 | 0.00 | 0.00 | 0.00 | 88 | 1017.2 |
| 20260902102849 | 23 | 27 | 1.6 | 1.6 | 0.00 | 0.00 | 0.00 | 87 | 1017.1 |
| 20260902102347 | 23 | 25 | 3.2 | 4.8 | 0.00 | 0.00 | 0.00 | 88 | 1017.1 |
| 20260902101842 | 23 | 34 | 4.8 | 6.4 | 0.00 | 0.00 | 0.00 | 88 | 1017.1 |
| 20260902101336 | 23 | 8 | 3.2 | 4.8 | 0.00 | 0.00 | 0.00 | 88 | 1017.2 |
| 20260902100836 | 23 | 13 | 6.4 | 6.4 | 0.00 | 0.00 | 0.00 | 88 | 1016.9 |
| 20260902100336 | 23 | 13 | 6.4 | 6.4 | 0.00 | 0.00 | 0.00 | 88 | 1016.9 |
| 20260902095831 | 23 | 359 | 3.2 | 3.2 | 0.00 | 0.00 | 0.00 | 89 | 1016.8 |
| 20260902095326 | 23 | 14 | 0.0 | 0.0 | 0.00 | 0.00 | 0.00 | 88 | 1016.9 |
| 20260902094825 | 23 | 17 | 3.2 | 3.2 | 0.00 | 0.00 | 0.00 | 88 | 1016.9 |
| 20260902094322 | 23 | 22 | 0.0 | 3.2 | 0.00 | 0.00 | 0.00 | 87 | 1016.9 |
| 20260902093821 | 23 | 300 | 0.0 | 3.2 | 0.00 | 0.00 | 0.00 | 86 | 1016.8 |
| 20260902093316 | 23 | 8 | 0.0 | 4.8 | 0.00 | 0.00 | 0.00 | 87 | 1017.0 |
| 20260902092815 | 23 | 4 | 3.2 | 6.4 | 0.00 | 0.00 | 0.00 | 87 | 1016.9 |
| 20260902092311 | 23 | 15 | 3.2 | 6.4 | 0.00 | 0.00 | 0.00 | 88 | 1016.8 |
| 20260902091810 | 23 | 34 | 3.2 | 4.8 | 0.00 | 0.00 | 0.00 | 88 | 1016.8 |
| 20260902091307 | 23 | 10 | 3.2 | 3.2 | 0.00 | 0.00 | 0.00 | 87 | 1016.9 |
| 20260902090803 | 23 | 35 | 0.0 | 3.2 | 0.00 | 0.00 | 0.00 | 87 | 1016.8 |
| 20260902090302 | 24 | 103 | 0.0 | 0.0 | 0.00 | 0.00 | 0.00 | 86 | 1016.7 |
| 20260902085801 | 24 | 10 | 4.8 | 4.8 | 0.00 | 0.00 | 0.00 | 86 | 1016.7 |
| 20260902085257 | 23 | 14 | 3.2 | 4.8 | 0.00 | 0.00 | 0.00 | 86 | 1016.7 |
| 20260902084752 | 23 | 14 | 6.4 | 6.4 | 0.00 | 0.00 | 0.00 | 86 | 1016.6 |
| 20260902084248 | 24 | 21 | 0.0 | 1.6 | 0.00 | 0.00 | 0.00 | 86 | 1016.6 |
| 20260902083743 | 24 | 27 | 3.2 | 6.4 | 0.00 | 0.00 | 0.00 | 85 | 1016.3 |
| 20260902083237 | 24 | 25 | 3.2 | 4.8 | 0.00 | 0.00 | 0.00 | 85 | 1016.5 |
| 20260902082732 | 24 | 12 | 3.2 | 6.4 | 0.00 | 0.00 | 0.00 | 85 | 1016.2 |
| 20260902082229 | 24 | 11 | 3.2 | 4.8 | 0.00 | 0.00 | 0.00 | 85 | 1016.4 |
| 20260902081725 | 24 | 30 | 4.8 | 4.8 | 0.00 | 0.00 | 0.00 | 85 | 1016.4 |
| 20260902081221 | 24 | 11 | 1.6 | 3.2 | 0.00 | 0.00 | 0.00 | 85 | 1016.2 |
| 20260902080715 | 24 | 16 | 6.4 | 6.4 | 0.00 | 0.00 | 0.00 | 84 | 1016.3 |
| 20260902080213 | 24 | 6 | 4.8 | 6.4 | 0.00 | 0.00 | 0.00 | 85 | 1016.2 |
| 20260902075712 | 24 | 14 | 0.0 | 1.6 | 0.00 | 0.00 | 0.00 | 85 | 1016.2 |
| 20260902075208 | 24 | 0 | 0.0 | 4.8 | 0.00 | 0.00 | 0.00 | 85 | 1016.2 |
| 20260902074708 | 24 | 24 | 1.6 | 3.2 | 0.00 | 0.00 | 0.00 | 85 | 1016.2 |
| 20260902074204 | 24 | 354 | 1.6 | 4.8 | 0.00 | 0.00 | 0.00 | 85 | 1016.1 |
| 20260902073659 | 23 | 22 | 1.6 | 3.2 | 0.00 | 0.00 | 0.00 | 86 | 1016.2 |
| 20260902073155 | 23 | 22 | 0.0 | 0.0 | 0.00 | 0.00 | 0.00 | 86 | 1016.1 |
| 20260902072651 | 24 | 14 | 0.0 | 1.6 | 0.00 | 0.00 | 0.00 | 85 | 1016.0 |
| 20260902072147 | 24 | 10 | 1.6 | 1.6 | 0.00 | 0.00 | 0.00 | 85 | 1016.1 |
| 20260902071643 | 24 | 349 | 1.6 | 3.2 | 0.00 | 0.00 | 0.00 | 85 | 1015.9 |
| 20260902071138 | 24 | 354 | 3.2 | 3.2 | 0.00 | 0.00 | 0.00 | 85 | 1016.0 |
| 20260902070634 | 24 | 34 | 0.0 | 0.0 | 0.00 | 0.00 | 0.00 | 84 | 1016.2 |
| 20260902070133 | 24 | 116 | 0.0 | 1.6 | 0.00 | 0.00 | 0.00 | 84 | 1016.3 |
| 20260902065632 | 24 | 312 | 0.0 | 3.2 | 0.00 | 0.00 | 0.00 | 84 | 1016.3 |
| 20260902065128 | 25 | 9 | 1.6 | 4.8 | 0.00 | 0.00 | 0.00 | 83 | 1016.3 |
| 20260902064624 | 25 | 15 | 0.0 | 3.2 | 0.00 | 0.00 | 0.00 | 82 | 1016.2 |
| 20260902064119 | 25 | 354 | 1.6 | 6.4 | 0.00 | 0.00 | 0.00 | 81 | 1016.1 |
| 20260902063614 | 25 | 13 | 3.2 | 6.4 | 0.00 | 0.00 | 0.00 | 80 | 1016.1 |
| 20260902063109 | 25 | 18 | 4.8 | 4.8 | 0.00 | 0.00 | 0.00 | 81 | 1016.1 |
| 20260902062608 | 25 | 86 | 0.0 | 0.0 | 0.00 | 0.00 | 0.00 | 81 | 1016.2 |
| 20260902062103 | 25 | 352 | 0.0 | 3.2 | 0.00 | 0.00 | 0.00 | 80 | 1016.1 |
| 20260902061602 | 25 | 10 | 4.8 | 6.4 | 0.00 | 0.00 | 0.00 | 80 | 1016.3 |
| 20260902061058 | 25 | 16 | 4.8 | 4.8 | 0.00 | 0.00 | 0.00 | 81 | 1016.0 |
| 20260902060554 | 25 | 347 | 0.0 | 1.6 | 0.00 | 0.00 | 0.00 | 81 | 1016.2 |
| 20260902060051 | 25 | 11 | 3.2 | 3.2 | 0.00 | 0.00 | 0.00 | 80 | 1016.1 |
| 20260902055546 | 25 | 10 | 0.0 | 4.8 | 0.00 | 0.00 | 0.00 | 80 | 1016.4 |
| 20260902055041 | 25 | 20 | 3.2 | 4.8 | 0.00 | 0.00 | 0.00 | 80 | 1016.4 |
| 20260902054536 | 25 | 347 | 1.6 | 3.2 | 0.00 | 0.00 | 0.00 | 81 | 1016.2 |
| 20260902054032 | 25 | 107 | 0.0 | 0.0 | 0.00 | 0.00 | 0.00 | 82 | 1016.1 |
| 20260902053533 | 25 | 114 | 0.0 | 3.2 | 0.00 | 0.00 | 0.00 | 81 | 1016.1 |
| 20260902053032 | 25 | 293 | 0.0 | 3.2 | 0.00 | 0.00 | 0.00 | 80 | 1016.1 |
| 20260902052527 | 25 | 18 | 0.0 | 1.6 | 0.00 | 0.00 | 0.00 | 80 | 1016.3 |
| 20260902052023 | 25 | 15 | 3.2 | 3.2 | 0.00 | 0.00 | 0.00 | 79 | 1016.5 |
| 20260902051523 | 26 | 156 | 0.0 | 1.6 | 0.00 | 0.00 | 0.00 | 79 | 1016.4 |
| 20260902051021 | 26 | 10 | 3.2 | 4.8 | 0.00 | 0.00 | 0.00 | 78 | 1016.3 |
| 20260902050516 | 26 | 125 | 0.0 | 0.0 | 0.00 | 0.00 | 0.00 | 79 | 1016.4 |
| 20260902050012 | 26 | 121 | 0.0 | 1.6 | 0.00 | 0.00 | 0.00 | 78 | 1016.4 |
| 20260902045507 | 26 | 50 | 0.0 | 6.4 | 0.00 | 0.00 | 0.00 | 77 | 1016.2 |
| 20260902045004 | 26 | 7 | 3.2 | 4.8 | 0.00 | 0.00 | 0.00 | 76 | 1016.3 |
| 20260902044503 | 26 | 22 | 3.2 | 4.8 | 0.00 | 0.00 | 0.00 | 76 | 1016.3 |
| 20260902043959 | 26 | 13 | 4.8 | 4.8 | 0.00 | 0.00 | 0.00 | 76 | 1016.3 |
| 20260902043454 | 26 | 15 | 4.8 | 4.8 | 0.00 | 0.00 | 0.00 | 76 | 1016.1 |
| 20260902042949 | 26 | 353 | 3.2 | 4.8 | 0.00 | 0.00 | 0.00 | 76 | 1016.2 |
| 20260902042449 | 26 | 352 | 1.6 | 4.8 | 0.00 | 0.00 | 0.00 | 76 | 1016.3 |
| 20260902041945 | 26 | 13 | 3.2 | 6.4 | 0.00 | 0.00 | 0.00 | 76 | 1016.2 |
| 20260902041444 | 26 | 6 | 3.2 | 4.8 | 0.00 | 0.00 | 0.00 | 76 | 1016.2 |
| 20260902040944 | 26 | 82 | 0.0 | 0.0 | 0.00 | 0.00 | 0.00 | 77 | 1016.3 |
| 20260902040439 | 26 | 328 | 0.0 | 0.0 | 0.00 | 0.00 | 0.00 | 76 | 1016.3 |
| 20260902035937 | 26 | 48 | 1.6 | 4.8 | 0.00 | 0.00 | 0.00 | 74 | 1016.2 |
| 20260902035433 | 26 | 355 | 3.2 | 4.8 | 0.00 | 0.00 | 0.00 | 75 | 1016.3 |
| 20260902034932 | 27 | 2 | 3.2 | 3.2 | 0.00 | 0.00 | 0.00 | 75 | 1016.4 |
| 20260902034422 | 27 | 12 | 3.2 | 4.8 | 0.00 | 0.00 | 0.00 | 74 | 1016.4 |
| 20260902033921 | 27 | 22 | 3.2 | 4.8 | 0.00 | 0.00 | 0.00 | 75 | 1016.3 |
| 20260902033420 | 27 | 23 | 3.2 | 3.2 | 0.00 | 0.00 | 0.00 | 74 | 1016.4 |
| 20260902032919 | 27 | 31 | 0.0 | 3.2 | 0.00 | 0.00 | 0.00 | 75 | 1016.2 |
| 20260902032414 | 27 | 13 | 3.2 | 4.8 | 0.00 | 0.00 | 0.00 | 74 | 1016.3 |
| 20260902031909 | 27 | 7 | 3.2 | 3.2 | 0.00 | 0.00 | 0.00 | 74 | 1016.4 |
| 20260902031404 | 27 | 19 | 3.2 | 4.8 | 0.00 | 0.00 | 0.00 | 74 | 1016.4 |
| 20260902030901 | 27 | 107 | 0.0 | 1.6 | 0.00 | 0.00 | 0.00 | 76 | 1016.3 |
| 20260902030354 | 27 | 4 | 0.0 | 3.2 | 0.00 | 0.00 | 0.00 | 74 | 1016.2 |
| 20260902025853 | 27 | 9 | 0.0 | 4.8 | 0.00 | 0.00 | 0.00 | 74 | 1016.2 |
| 20260902025350 | 27 | 359 | 1.6 | 4.8 | 0.00 | 0.00 | 0.00 | 73 | 1016.2 |
| 20260902024849 | 27 | 4 | 0.0 | 3.2 | 0.00 | 0.00 | 0.00 | 74 | 1016.2 |
| 20260902024345 | 27 | 346 | 3.2 | 3.2 | 0.00 | 0.00 | 0.00 | 73 | 1016.3 |
| 20260902023840 | 27 | 0 | 3.2 | 3.2 | 0.00 | 0.00 | 0.00 | 73 | 1016.1 |
| 20260902023336 | 27 | 10 | 0.0 | 3.2 | 0.00 | 0.00 | 0.00 | 74 | 1016.1 |
| 20260902022834 | 27 | 357 | 0.0 | 3.2 | 0.00 | 0.00 | 0.00 | 72 | 1016.2 |
| 20260902022330 | 27 | 16 | 3.2 | 4.8 | 0.00 | 0.00 | 0.00 | 73 | 1016.2 |
| 20260902021827 | 27 | 113 | 0.0 | 1.6 | 0.00 | 0.00 | 0.00 | 75 | 1016.1 |
| 20260902021326 | 27 | 10 | 0.0 | 0.0 | 0.00 | 0.00 | 0.00 | 73 | 1016.4 |
| 20260902020822 | 27 | 350 | 0.0 | 0.0 | 0.00 | 0.00 | 0.00 | 73 | 1016.2 |
| 20260902020319 | 27 | 23 | 3.2 | 4.8 | 0.00 | 0.00 | 0.00 | 72 | 1016.2 |
| 20260902015814 | 27 | 328 | 0.0 | 0.0 | 0.00 | 0.00 | 0.00 | 75 | 1016.2 |
| 20260902015310 | 27 | 110 | 0.0 | 3.2 | 0.00 | 0.00 | 0.00 | 75 | 1016.2 |
| 20260902014805 | 28 | 122 | 0.0 | 3.2 | 0.00 | 0.00 | 0.00 | 75 | 1016.4 |
| 20260902014302 | 28 | 129 | 0.0 | 3.2 | 0.00 | 0.00 | 0.00 | 74 | 1016.3 |
| 20260902013800 | 28 | 130 | 0.0 | 1.6 | 0.00 | 0.00 | 0.00 | 73 | 1016.2 |
| 20260902013256 | 28 | 117 | 0.0 | 1.6 | 0.00 | 0.00 | 0.00 | 72 | 1016.1 |
| 20260902012751 | 28 | 68 | 0.0 | 1.6 | 0.00 | 0.00 | 0.00 | 70 | 1016.1 |
| 20260902012247 | 28 | 348 | 3.2 | 3.2 | 0.00 | 0.00 | 0.00 | 68 | 1016.1 |
| 20260902011742 | 29 | 111 | 0.0 | 3.2 | 0.00 | 0.00 | 0.00 | 68 | 1015.8 |
| 20260902011242 | 29 | 32 | 1.6 | 4.8 | 0.00 | 0.00 | 0.00 | 65 | 1016.0 |
| 20260902010741 | 29 | 38 | 3.2 | 6.4 | 0.00 | 0.00 | 0.00 | 66 | 1015.9 |
| 20260902010237 | 30 | 17 | 3.2 | 4.8 | 0.00 | 0.00 | 0.00 | 66 | 1015.7 |
| 20260902005736 | 30 | 25 | 4.8 | 6.4 | 0.00 | 0.00 | 0.00 | 66 | 1015.6 |
| 20260902005231 | 30 | 47 | 4.8 | 4.8 | 0.00 | 0.00 | 0.00 | 65 | 1015.7 |
| 20260902004731 | 30 | 73 | 0.0 | 4.8 | 0.00 | 0.00 | 0.00 | 64 | 1015.8 |
| 20260902004226 | 30 | 39 | 3.2 | 6.4 | 0.00 | 0.00 | 0.00 | 64 | 1015.6 |
| 20260902003721 | 30 | 21 | 3.2 | 4.8 | 0.00 | 0.00 | 0.00 | 64 | 1015.6 |
| 20260902003217 | 30 | 29 | 3.2 | 6.4 | 0.00 | 0.00 | 0.00 | 64 | 1015.6 |
| 20260902002712 | 30 | 57 | 3.2 | 6.4 | 0.00 | 0.00 | 0.00 | 63 | 1015.7 |
| 20260902002212 | 30 | 30 | 3.2 | 6.4 | 0.00 | 0.00 | 0.00 | 63 | 1015.6 |
| 20260902001708 | 30 | 20 | 3.2 | 4.8 | 0.00 | 0.00 | 0.00 | 62 | 1015.8 |
| 20260902001207 | 31 | 27 | 3.2 | 6.4 | 0.00 | 0.00 | 0.00 | 60 | 1015.6 |
| 20260902000702 | 31 | 348 | 3.2 | 4.8 | 0.00 | 0.00 | 0.00 | 61 | 1015.8 |
| 20260902000157 | 31 | 31 | 4.8 | 4.8 | 0.00 | 0.00 | 0.00 | 61 | 1015.7 |
| 20260901235657 | 31 | 19 | 6.4 | 6.4 | 0.00 | 0.00 | 0.00 | 61 | 1015.8 |
| 20260901235152 | 31 | 30 | 6.4 | 6.4 | 0.00 | 0.00 | 0.00 | 60 | 1015.7 |
| 20260901234651 | 31 | 27 | 4.8 | 6.4 | 0.00 | 0.00 | 0.00 | 58 | 1016.1 |
| 20260901234146 | 31 | 14 | 3.2 | 6.4 | 0.00 | 0.00 | 0.00 | 58 | 1016.0 |
| 20260901233641 | 32 | 48 | 3.2 | 6.4 | 0.00 | 0.00 | 0.00 | 56 | 1015.8 |
| 20260901233137 | 32 | 358 | 1.6 | 4.8 | 0.00 | 0.00 | 0.00 | 57 | 1015.9 |
| 20260901232632 | 32 | 17 | 4.8 | 6.4 | 0.00 | 0.00 | 0.00 | 56 | 1015.9 |
| 20260901232127 | 32 | 20 | 4.8 | 4.8 | 0.00 | 0.00 | 0.00 | 55 | 1015.9 |